Location: ??????
(55.4348°N, 39.2112°E)
Time: 06:01:13
(UTC+00:00)

SWAS - Pass Details

Date: 14 April 2024
Orbit: 561 x 572 km, 69.9° (Epoch: 22 May)

Event Time Altitude Azimuth Distance (km) Brightness Sun altitude
Rises 00:33:25 0° 323° (NW) 2,781 8.0 -14.0°
Reaches altitude 10° 00:35:38 10° 322° (NW) 1,882 7.1 -13.8°
Maximum altitude 00:39:50 77° 237° (WSW) 592 4.3 -13.3°
Drops below altitude 10° 00:44:02 10° 151° (SSE) 1,877 6.9 -12.8°
Sets 00:46:15 0° 150° (SSE) 2,773 7.8 -12.6°
